Location: Chequamegon National Forest
(46.1070°N, 90.8420°W)
Time: 08:15:03
(UTC-05:00)

Amateur Radio Satellites - All Passes

Search period start: 31 August 2015 07:45
Search period end: 01 September 2015 07:45
Location: Chequamegon National Forest, 46.1070°N, 90.8420°W

Satellite Date Start Highest point End Downlink Frequencies (MHz)
Time Altitude Azimuth
PRISM 31 Aug 07:57:44 08:01:37 40° 261° (W) 08:05:30 437.425
Cubesat XI-IV 31 Aug 07:59:49 08:05:05 64° 289° (WNW) 08:10:21 437.490
BRITE-PL 31 Aug 08:05:37 08:10:40 37° 95° (E) 08:15:55 437.365/2234.400
VERMONT LUNAR 31 Aug 08:07:05 08:09:18 19° 195° (SSW) 08:11:31 437.305
AIST 1 31 Aug 08:08:42 08:12:31 34° 92° (E) 08:16:24
Cosmos 2491 31 Aug 08:11:40 08:18:04 25° 81° (E) 08:24:48 435.465 / 435.565
STRAND 1 31 Aug 08:20:05 08:24:16 24° 268° (W) 08:28:21 437.568
CUTE 1.7 + AOD 2 31 Aug 08:27:12 08:28:37 12° 86° (E) 08:30:16 437.475
PHONESAT 2.4 31 Aug 08:35:04 08:38:08 31° 177° (S) 08:41:12 2401.200-2431.200
GOMX 1 31 Aug 08:38:28 08:43:39 44° 97° (E) 08:48:55 467.674
CANX-2 31 Aug 08:39:55 08:42:48 18° 90° (E) 08:45:46 2200.000
Cosmos 2504 31 Aug 08:41:37 08:45:25 14° 49° (NE) 08:49:37 435.465 / 435.565
CUTE-I 31 Aug 08:45:37 08:50:07 28° 296° (WNW) 08:54:32 437.470
DOVE 4 31 Aug 08:55:49 09:00:48 40° 96° (E) 09:05:47 437.250
ISS 31 Aug 08:58:38 09:00:39 16° 136° (SE) 09:02:44 145.825
SEEDS 31 Aug 09:02:25 09:05:41 22° 92° (E) 09:09:01 437.485
CUSAT 1 31 Aug 09:02:37 09:05:02 12° 50° (NE) 09:08:02 437.405
TIGRISAT 31 Aug 09:05:45 09:07:07 11° 58° (ENE) 09:08:44 435.000
HO-68 31 Aug 09:08:00 09:14:43 41° 97° (E) 09:21:27 435.675
YUBILEINY 31 Aug 09:15:40 09:24:29 72° 266° (W) 09:33:12 435.215
SO-50 31 Aug 09:19:08 09:23:43 36° 42° (NE) 09:28:15 436.795
ANTELSAT 31 Aug 09:20:54 09:23:43 16° 61° (ENE) 09:26:43 437.575/2403.000
DANDE 31 Aug 09:25:15 09:27:30 12° 52° (NE) 09:30:21 436.750
COMPASS 1 31 Aug 09:25:15 09:28:55 30° 95° (E) 09:32:36 437.405
AAUSAT CUBESAT 2 31 Aug 09:36:02 09:39:47 33° 96° (E) 09:43:32 437.432
CUBEBUG 2 31 Aug 09:42:23 09:46:03 23° 91° (E) 09:49:43 437.445
Cubesat XI-IV 31 Aug 09:42:49 09:44:17 11° 306° (NW) 09:45:29 437.490
BRITE-PL 31 Aug 09:44:10 09:49:08 36° 292° (WNW) 09:54:13 437.365/2234.400
ZACube-1 31 Aug 09:46:23 09:48:45 14° 87° (E) 09:51:16 437.345
CINEMA 3 31 Aug 09:46:37 09:51:33 53° 99° (E) 09:56:22 145.822/145.860
AIST 1 31 Aug 09:46:50 09:50:17 23° 290° (WNW) 09:53:40
UWE-3 31 Aug 09:50:55 09:54:23 21° 90° (E) 09:57:53 435.000/436.395/437.385
FUNcube-1 31 Aug 09:51:52 09:54:32 16° 88° (E) 09:57:19 145.935
PCSat 31 Aug 09:52:57 09:57:15 24° 38° (NE) 10:01:38 145.827
POLYITAN 1 31 Aug 09:53:52 09:55:25 12° 60° (ENE) 09:57:10 437.675
POPSAT HIP 1 31 Aug 09:56:34 09:58:16 12° 60° (ENE) 10:00:09 437.405
DUCHIFAT 1 31 Aug 09:57:44 09:59:20 12° 60° (ENE) 10:01:08 145.980
AUBIESAT-1 31 Aug 09:57:50 10:02:17 42° 65° (ENE) 10:06:41 437.475
CUTE 1.7 + AOD 2 31 Aug 10:00:53 10:05:07 71° 285° (WNW) 10:09:18 437.475
M-CUBED/EXP-1 PRIME 31 Aug 10:02:15 10:06:55 53° 66° (ENE) 10:11:32 437.505
Cosmos 2491 31 Aug 10:05:23 10:14:07 78° 281° (W) 10:22:53 435.465 / 435.565
DELFI C3 31 Aug 10:05:28 10:08:25 20° 92° (E) 10:11:25 145.870
UNISAT 6 31 Aug 10:09:54 10:14:20 43° 70° (ENE) 10:18:50 437.425
QB50P2 31 Aug 10:12:04 10:14:54 18° 64° (ENE) 10:17:53 145.880/145.840
PHONESAT 2.4 31 Aug 10:12:44 10:15:33 24° 194° (SSW) 10:18:22 2401.200-2431.200
NANOSAT C BR1 31 Aug 10:13:39 10:16:27 18° 63° (ENE) 10:19:23 145.865
CANX-2 31 Aug 10:14:56 10:19:00 45° 289° (WNW) 10:23:00 2200.000
GOMX 1 31 Aug 10:16:54 10:21:35 30° 294° (WNW) 10:26:17 467.674
QB50P1 31 Aug 10:26:23 10:29:44 24° 66° (ENE) 10:33:12 145.935-145.965
Cosmos 2504 31 Aug 10:31:37 10:40:04 58° 74° (ENE) 10:48:03 435.465 / 435.565
ISS 31 Aug 10:33:26 10:36:41 86° 332° (NNW) 10:39:57 145.825
DOVE 4 31 Aug 10:33:44 10:38:25 32° 293° (WNW) 10:43:02 437.250
HUMSAT D 31 Aug 10:36:25 10:39:17 18° 90° (E) 10:42:15 437.325/437.525
SEEDS 31 Aug 10:37:44 10:41:36 36° 290° (WNW) 10:45:25 437.485
TIGRISAT 31 Aug 10:38:27 10:43:07 79° 76° (ENE) 10:47:52 435.000
Oscar 11 31 Aug 10:39:24 10:43:45 72° 102° (ESE) 10:48:02 145.826/435.025
CUSAT 1 31 Aug 10:42:11 10:49:26 49° 71° (ENE) 10:57:25 437.405
UKube-1 31 Aug 10:46:16 10:47:37 11° 87° (E) 10:49:12 .
AISAT 31 Aug 10:52:59 10:53:23 10° 85° (E) 10:54:04 437.250
ANTELSAT 31 Aug 10:55:18 11:00:00 70° 259° (W) 11:04:44 437.575/2403.000
HO-68 31 Aug 10:55:45 11:02:33 46° 296° (WNW) 11:09:16 435.675
SO-50 31 Aug 10:59:42 11:04:20 40° 242° (WSW) 11:08:51 436.795
COMPASS 1 31 Aug 11:00:59 11:04:31 26° 292° (WNW) 11:07:58 437.405
DANDE 31 Aug 11:05:16 11:12:17 50° 72° (ENE) 11:20:27 436.750
AAUSAT CUBESAT 2 31 Aug 11:11:52 11:15:15 24° 293° (WNW) 11:18:33 437.432
YUBILEINY 31 Aug 11:15:04 11:19:50 15° 286° (WNW) 11:24:04 435.215
CUBEBUG 2 31 Aug 11:18:27 11:22:57 44° 290° (WNW) 11:27:18 437.445
VELOX 1 31 Aug 11:19:05 11:22:13 19° 91° (E) 11:25:28 145.980
ZACube-1 31 Aug 11:21:08 11:25:39 65° 286° (WNW) 11:30:02 437.345
CINEMA 3 31 Aug 11:24:28 11:28:23 23° 296° (WNW) 11:32:08 145.822/145.860
POLYITAN 1 31 Aug 11:26:26 11:30:43 84° 257° (WSW) 11:35:03 437.675
UWE-3 31 Aug 11:26:44 11:31:10 45° 289° (WNW) 11:35:27 435.000/436.395/437.385
FUNcube-1 31 Aug 11:26:51 11:31:19 58° 287° (WNW) 11:35:39 145.935
POPSAT HIP 1 31 Aug 11:29:18 11:33:34 80° 257° (WSW) 11:37:53 437.405
DUCHIFAT 1 31 Aug 11:30:19 11:34:33 81° 257° (WSW) 11:38:51 145.980
AUBIESAT-1 31 Aug 11:33:04 11:37:05 26° 261° (W) 11:40:58 437.475
PCSat 31 Aug 11:35:52 11:41:19 76° 239° (WSW) 11:46:43 145.827
M-CUBED/EXP-1 PRIME 31 Aug 11:38:14 11:41:56 21° 263° (W) 11:45:29 437.505
DELFI C3 31 Aug 11:39:55 11:43:37 36° 290° (WNW) 11:47:16 145.870
BUGSAT 1 31 Aug 11:40:41 11:44:45 83° 76° (ENE) 11:48:55 437.445
QB50P2 31 Aug 11:46:18 11:50:27 51° 261° (W) 11:54:39 145.880/145.840
UNISAT 6 31 Aug 11:47:31 11:51:19 23° 269° (W) 11:55:02 437.425
NANOSAT C BR1 31 Aug 11:47:47 11:51:56 51° 261° (W) 11:56:07 145.865
Oscar 19 31 Aug 11:55:14 11:57:33 13° 56° (ENE) 12:00:05 437.125/150
QB50P1 31 Aug 12:01:29 12:05:26 36° 263° (W) 12:09:24 145.935-145.965
DX 1 31 Aug 12:06:27 12:10:52 86° 104° (ESE) 12:15:15 434.975-435.025
Cosmos 2491 31 Aug 12:06:48 12:12:48 19° 306° (NW) 12:18:27 435.465 / 435.565
GONETS M04 31 Aug 12:07:36 12:11:59 15° 49° (NE) 12:16:52
ISS 31 Aug 12:10:24 12:13:22 31° 352° (N) 12:16:20 145.825
ESTCUBE 1 31 Aug 12:10:53 12:15:14 48° 99° (E) 12:19:36 437.505/2401.250
HUMSAT D 31 Aug 12:11:13 12:15:19 46° 289° (WNW) 12:19:19 437.325/437.525
Oscar 11 31 Aug 12:17:09 12:19:24 14° 299° (WNW) 12:21:30 145.826/435.025
TIGRISAT 31 Aug 12:18:18 12:20:32 13° 274° (W) 12:22:32 435.000
UKube-1 31 Aug 12:20:01 12:24:22 76° 286° (WNW) 12:28:42 .
50 SAT 31 Aug 12:22:29 12:26:23 75° 286° (WNW) 12:30:12 437.505
Cosmos 2504 31 Aug 12:24:24 12:31:55 35° 276° (W) 12:38:55 435.465 / 435.565
CUSAT 1 31 Aug 12:24:51 12:32:00 44° 268° (W) 12:39:36 437.405
AISAT 31 Aug 12:26:11 12:30:42 89° 285° (WNW) 12:35:12 437.250
SPROUT 31 Aug 12:26:58 12:30:05 20° 91° (E) 12:33:19 437.525
CUBEBUG 1 31 Aug 12:28:31 12:32:54 61° 100° (E) 12:37:17 437.445
HO-68 31 Aug 12:46:38 12:48:39 11° 317° (NW) 12:50:19 435.675
DANDE 31 Aug 12:48:32 12:55:25 42° 268° (W) 13:03:06 436.750
ITAMSAT 1 31 Aug 12:53:24 12:55:16 12° 55° (NE) 12:57:23 435.822/435.867
VELOX 1 31 Aug 12:54:44 12:59:03 48° 289° (WNW) 13:03:21 145.980
Cosmos 2499 31 Aug 13:21:58 13:24:20 11° 44° (NE) 13:27:14 435.465 / 435.565
PCSat 31 Aug 13:22:04 13:23:55 11° 257° (WSW) 13:25:27 145.827
Oscar 19 31 Aug 13:31:00 13:36:10 81° 73° (ENE) 13:41:24 437.125/150
TISAT 1 31 Aug 13:32:19 13:36:31 53° 100° (E) 13:40:43 437.305
ITUPSAT 1 31 Aug 13:36:34 13:37:31 11° 85° (E) 13:38:45 437.325
DX 1 31 Aug 13:44:40 13:46:31 12° 301° (WNW) 13:48:10 434.975-435.025
ISS 31 Aug 13:47:14 13:50:17 35° 12° (NNE) 13:53:19 145.825
ESTCUBE 1 31 Aug 13:48:27 13:51:49 21° 296° (WNW) 13:55:05 437.505/2401.250
JAS-2 31 Aug 13:59:53 14:06:43 37° 62° (ENE) 14:13:45 435.910
SPROUT 31 Aug 14:02:15 14:06:25 44° 289° (WNW) 14:10:31 437.525
GONETS M04 31 Aug 14:02:29 14:11:12 62° 76° (ENE) 14:19:57
AISAT 31 Aug 14:04:53 14:06:38 12° 301° (WNW) 14:08:11 437.250
CUBEBUG 1 31 Aug 14:06:01 14:08:51 17° 298° (WNW) 14:11:33 437.445
BEESAT 31 Aug 14:07:53 14:11:36 23° 92° (E) 14:15:25 436.000
Gurwin Techsat 1B 31 Aug 14:08:09 14:13:21 58° 71° (ENE) 14:18:35 435.225
AO-7 31 Aug 14:22:18 14:29:10 31° 54° (NE) 14:36:11 29.400- 29.500
ITAMSAT 1 31 Aug 14:28:50 14:33:59 74° 73° (ENE) 14:39:10 435.822/435.867
SWISSCUBE 31 Aug 14:33:14 14:37:46 43° 98° (E) 14:42:18 437.505
TISAT 1 31 Aug 15:09:01 15:11:55 18° 297° (WNW) 15:14:42 437.305
ITUPSAT 1 31 Aug 15:11:25 15:16:13 89° 106° (ESE) 15:20:59 437.325
Cosmos 2499 31 Aug 15:12:02 15:20:26 48° 71° (ENE) 15:28:23 435.465 / 435.565
Oscar 19 31 Aug 15:13:26 15:16:16 14° 274° (W) 15:18:51 437.125/150
RS-15 31 Aug 15:14:36 15:22:29 25° 103° (ESE) 15:31:04 29.354- 29.394
ISS 31 Aug 15:23:37 15:26:51 68° 211° (SSW) 15:30:04 145.825
KKS-1 31 Aug 15:25:56 15:29:31 24° 93° (E) 15:33:11 437.445
BEESAT 3 31 Aug 15:37:29 15:41:29 58° 122° (ESE) 15:45:30 437.485
HORYU 2 31 Aug 15:37:30 15:41:46 45° 70° (ENE) 15:46:05 437.375
JAS-2 31 Aug 15:43:49 15:51:25 60° 261° (W) 15:59:11 435.910
BEESAT 31 Aug 15:45:08 15:49:40 44° 291° (WNW) 15:54:10 436.000
BEESAT 2 31 Aug 15:48:57 15:52:58 57° 121° (ESE) 15:57:01 435.950
Gurwin Techsat 1B 31 Aug 15:49:46 15:53:47 21° 270° (W) 15:57:39 435.225
GONETS M04 31 Aug 16:00:01 16:07:36 33° 276° (W) 16:14:59
ITAMSAT 1 31 Aug 16:10:58 16:14:08 16° 272° (W) 16:17:06 435.822/435.867
SWISSCUBE 31 Aug 16:11:32 16:15:25 25° 296° (WNW) 16:19:13 437.505
AO-7 31 Aug 16:13:00 16:21:22 75° 254° (WSW) 16:29:45 29.400- 29.500
AIST 2 31 Aug 16:23:06 16:26:44 28° 116° (ESE) 16:30:26 435.215
STARS 31 Aug 16:44:04 16:48:34 87° 107° (ESE) 16:53:01 437.465
ITUPSAT 1 31 Aug 16:51:07 16:53:29 13° 302° (WNW) 16:55:38 437.325
CUTE-I 31 Aug 16:52:27 16:55:26 16° 58° (ENE) 16:58:36 437.470
ISS 31 Aug 17:01:56 17:02:44 11° 227° (SW) 17:03:27 145.825
KKS-1 31 Aug 17:02:06 17:06:18 39° 291° (WNW) 17:10:28 437.445
Cosmos 2499 31 Aug 17:05:30 17:13:33 42° 273° (W) 17:21:02 435.465 / 435.565
MOZHAYETS 4 31 Aug 17:11:41 17:16:04 44° 98° (E) 17:20:26
HORYU 2 31 Aug 17:15:12 17:18:39 21° 268° (W) 17:22:00 437.375
BEESAT 3 31 Aug 17:16:32 17:19:44 21° 322° (NW) 17:22:54 437.485
RS-15 31 Aug 17:22:27 17:33:27 88° 122° (ESE) 17:44:58 29.354- 29.394
BEESAT 2 31 Aug 17:28:05 17:31:20 22° 322° (NW) 17:34:33 435.950
JAS-2 31 Aug 17:35:19 17:38:17 12° 283° (WNW) 17:40:38 435.910
Cubesat XI-IV 31 Aug 17:44:57 17:49:52 40° 67° (ENE) 17:54:50 437.490
AIST 2 31 Aug 18:01:14 18:05:12 37° 315° (NW) 18:09:11 435.215
AO-7 31 Aug 18:10:46 18:15:48 16° 276° (W) 18:20:18 29.400- 29.500
AIST 1 31 Aug 18:14:20 18:16:04 12° 63° (ENE) 18:18:01
Cosmos 2491 31 Aug 18:17:43 18:21:57 15° 49° (NE) 18:26:42 435.465 / 435.565
STARS 31 Aug 18:22:29 18:24:23 12° 301° (WNW) 18:26:07 437.465
CUTE-I 31 Aug 18:29:32 18:34:52 88° 252° (WSW) 18:40:14 437.470
O/OREOS (USA 219) 31 Aug 18:32:47 18:35:36 17° 101° (E) 18:38:35 437.305
MOZHAYETS 4 31 Aug 18:49:29 18:53:03 22° 295° (WNW) 18:56:30
STRAND 1 31 Aug 18:49:44 18:51:44 12° 86° (E) 18:54:01 437.568
CUBESAT XI-V 31 Aug 19:04:32 19:09:08 60° 100° (E) 19:13:45 437.345
BRITE-PL 31 Aug 19:19:29 19:23:41 46° 70° (ENE) 19:28:16 437.365/2234.400
CUTE 1.7 + AOD 2 31 Aug 19:22:39 19:24:38 13° 62° (ENE) 19:26:48 437.475
Cubesat XI-IV 31 Aug 19:25:24 19:30:05 30° 266° (W) 19:34:44 437.490
CANX-2 31 Aug 19:35:26 19:38:27 19° 65° (ENE) 19:41:36 2200.000
RS-15 31 Aug 19:37:08 19:47:26 40° 334° (NNW) 19:58:07 29.354- 29.394
PRISM 31 Aug 19:37:35 19:40:45 22° 93° (E) 19:43:59 437.425
HO-68 31 Aug 19:39:16 19:45:48 41° 62° (ENE) 19:52:26 435.675
AIST 2 31 Aug 19:44:43 19:44:59 10° 337° (NNW) 19:45:08 435.215
GOMX 1 31 Aug 19:49:15 19:53:41 55° 71° (ENE) 19:58:30 467.674
AIST 1 31 Aug 19:50:01 19:54:20 73° 263° (W) 19:58:40
SEEDS 31 Aug 19:56:57 20:00:15 23° 66° (ENE) 20:03:38 437.485
DOVE 4 31 Aug 20:03:47 20:08:14 48° 71° (ENE) 20:13:01 437.250
O/OREOS (USA 219) 31 Aug 20:10:08 20:14:37 58° 298° (WNW) 20:19:09 437.305
Cosmos 2491 31 Aug 20:12:32 20:21:12 62° 75° (ENE) 20:29:54 435.465 / 435.565
CUTE-I 31 Aug 20:13:31 20:15:50 12° 275° (W) 20:17:52 437.470
COMPASS 1 31 Aug 20:18:47 20:22:25 29° 68° (ENE) 20:26:06 437.405
YUBILEINY 31 Aug 20:24:35 20:31:38 29° 82° (E) 20:38:57 435.215
STRAND 1 31 Aug 20:26:37 20:31:46 88° 278° (W) 20:36:53 437.568
AAUSAT CUBESAT 2 31 Aug 20:29:03 20:32:46 32° 69° (ENE) 20:36:31 437.432
CUBEBUG 2 31 Aug 20:42:47 20:46:38 27° 66° (ENE) 20:50:38 437.445
CUBESAT XI-V 31 Aug 20:43:01 20:46:11 18° 297° (WNW) 20:49:13 437.345
ZACube-1 31 Aug 20:44:39 20:47:35 17° 62° (ENE) 20:50:40 437.345
FUNcube-1 31 Aug 20:49:54 20:53:00 19° 63° (ENE) 20:56:16 145.935
UWE-3 31 Aug 20:50:16 20:53:58 25° 65° (ENE) 20:57:48 435.000/436.395/437.385
CINEMA 3 31 Aug 20:50:21 20:55:00 62° 74° (ENE) 20:59:54 145.822/145.860
DELFI C3 31 Aug 20:55:14 20:58:01 19° 65° (ENE) 21:00:55 145.870
CUTE 1.7 + AOD 2 31 Aug 20:55:45 21:00:02 73° 258° (WSW) 21:04:20 437.475
BRITE-PL 31 Aug 20:59:18 21:02:36 20° 271° (W) 21:05:58 437.365/2234.400
CANX-2 31 Aug 21:09:57 21:14:06 46° 262° (W) 21:18:15 2200.000
PRISM 31 Aug 21:12:31 21:16:18 36° 291° (WNW) 21:20:03 437.425
HO-68 31 Aug 21:26:38 21:33:30 46° 262° (W) 21:40:22 435.675
GOMX 1 31 Aug 21:29:07 21:32:20 18° 273° (W) 21:35:31 467.674
HUMSAT D 31 Aug 21:30:35 21:33:37 19° 64° (ENE) 21:36:47 437.325/437.525
DX 1 31 Aug 21:31:04 21:32:56 13° 60° (ENE) 21:34:58 434.975-435.025
SEEDS 31 Aug 21:31:53 21:35:52 37° 263° (W) 21:39:49 437.485
Oscar 11 31 Aug 21:36:18 21:40:38 76° 75° (ENE) 21:45:00 145.826/435.025
DOVE 4 31 Aug 21:42:43 21:46:20 21° 271° (W) 21:50:01 437.250
UKube-1 31 Aug 21:43:13 21:45:38 15° 61° (ENE) 21:48:12 .
AISAT 31 Aug 21:52:16 21:54:31 14° 60° (ENE) 21:56:57 437.250
RS-15 31 Aug 21:54:07 22:03:53 31° 7° (N) 22:14:07 29.354- 29.394
COMPASS 1 31 Aug 21:54:24 21:58:04 27° 266° (W) 22:01:41 437.405
O/OREOS (USA 219) 31 Aug 21:54:57 21:55:10 10° 320° (NW) 21:55:13 437.305
AAUSAT CUBESAT 2 31 Aug 22:04:52 22:08:24 25° 267° (W) 22:11:51 437.432
STRAND 1 31 Aug 22:07:34 22:10:18 14° 303° (WNW) 22:12:49 437.568
Cosmos 2491 31 Aug 22:10:06 22:17:39 33° 276° (W) 22:24:59 435.465 / 435.565
BEESAT 3 31 Aug 22:16:42 22:19:01 15° 32° (NNE) 22:21:23 437.485
CUBEBUG 2 31 Aug 22:18:47 22:23:09 39° 264° (W) 22:27:37 437.445
ZACube-1 31 Aug 22:18:58 22:23:29 61° 260° (W) 22:28:04 437.345
YUBILEINY 31 Aug 22:19:04 22:27:50 69° 283° (WNW) 22:36:40 435.215
VELOX 1 31 Aug 22:19:05 22:22:33 24° 65° (ENE) 22:26:08 145.980
FUNcube-1 31 Aug 22:24:28 22:28:56 56° 260° (W) 22:33:29 145.935
UWE-3 31 Aug 22:25:54 22:30:17 41° 263° (W) 22:34:43 435.000/436.395/437.385
BEESAT 2 31 Aug 22:28:37 22:30:58 15° 32° (NNE) 22:33:24 435.950
DELFI C3 31 Aug 22:28:56 22:32:48 43° 262° (W) 22:36:41 145.870
TIGRISAT 31 Aug 22:29:25 22:31:43 14° 87° (E) 22:34:11 435.000
CINEMA 3 31 Aug 22:29:34 22:32:44 17° 273° (W) 22:35:47 145.822/145.860
ANTELSAT 31 Aug 22:45:38 22:49:04 21° 91° (E) 22:52:32 437.575/2403.000
DX 1 31 Aug 23:04:16 23:08:37 80° 257° (WSW) 23:12:59 434.975-435.025
Cosmos 2504 31 Aug 23:04:26 23:11:50 41° 86° (E) 23:19:42 435.465 / 435.565
HUMSAT D 31 Aug 23:04:51 23:09:02 48° 261° (W) 23:13:15 437.325/437.525
AIST 2 31 Aug 23:05:14 23:06:15 11° 25° (NNE) 23:07:22 435.215
50 SAT 31 Aug 23:07:47 23:11:45 84° 76° (ENE) 23:15:44 437.505
POLYITAN 1 31 Aug 23:10:48 23:12:57 14° 88° (E) 23:15:17 437.675
AUBIESAT-1 31 Aug 23:11:43 23:14:19 17° 95° (E) 23:16:53 437.475
ESTCUBE 1 31 Aug 23:12:46 23:17:11 60° 73° (ENE) 23:21:37 437.505/2401.250
POPSAT HIP 1 31 Aug 23:13:19 23:15:35 14° 88° (E) 23:18:01 437.405
DUCHIFAT 1 31 Aug 23:13:54 23:16:03 14° 88° (E) 23:18:23 145.980
Oscar 11 31 Aug 23:15:48 23:17:26 12° 274° (W) 23:18:50 145.826/435.025
M-CUBED/EXP-1 PRIME 31 Aug 23:16:35 23:19:49 23° 97° (E) 23:22:53 437.505
UKube-1 31 Aug 23:17:02 23:21:18 65° 258° (WSW) 23:25:37 .
BUGSAT 1 31 Aug 23:22:51 23:23:38 11° 86° (E) 23:24:42 437.445
SPROUT 31 Aug 23:23:38 23:26:53 22° 65° (ENE) 23:30:14 437.525
AISAT 31 Aug 23:26:10 23:30:34 73° 257° (WSW) 23:35:01 437.250
CUBEBUG 1 31 Aug 23:26:55 23:31:11 68° 74° (ENE) 23:35:32 437.445
QB50P2 31 Aug 23:29:29 23:32:48 22° 92° (E) 23:36:11 145.880/145.840
NANOSAT C BR1 31 Aug 23:30:34 23:33:49 21° 92° (E) 23:37:09 145.865
UNISAT 6 31 Aug 23:35:50 23:40:26 66° 101° (E) 23:44:54 437.425
QB50P1 31 Aug 23:43:52 23:47:38 29° 95° (E) 23:51:25 145.935-145.965
CUSAT 1 31 Aug 23:53:08 23:56:36 28° 86° (E) 00:01:06 437.405
BEESAT 3 31 Aug 23:53:34 23:57:37 79° 52° (NE) 00:01:37 437.485
VELOX 1 31 Aug 23:54:47 23:58:55 39° 263° (W) 00:03:05 145.980
TIGRISAT 01 Sep 00:04:27 00:09:03 68° 286° (WNW) 00:13:29 435.000
BEESAT 2 01 Sep 00:05:37 00:09:42 80° 53° (NE) 00:13:44 435.950
RS-15 01 Sep 00:08:20 00:19:42 54° 39° (NE) 00:31:35 29.354- 29.394
YUBILEINY 01 Sep 00:21:21 00:26:49 17° 309° (NW) 00:31:53 435.215
DANDE 01 Sep 00:21:25 00:24:35 29° 88° (E) 00:28:40 436.750
ANTELSAT 01 Sep 00:21:43 00:26:07 44° 290° (WNW) 00:30:22 437.575/2403.000
TISAT 1 01 Sep 00:26:35 00:30:41 54° 72° (ENE) 00:34:51 437.305
AIST 2 01 Sep 00:41:55 00:45:56 43° 47° (NE) 00:49:54 435.215
ITUPSAT 1 01 Sep 00:44:43 00:47:57 19° 62° (ENE) 00:51:18 437.325
POLYITAN 1 01 Sep 00:45:02 00:49:20 63° 287° (WNW) 00:53:34 437.675
AUBIESAT-1 01 Sep 00:45:31 00:49:20 41° 296° (WNW) 00:52:50 437.475
POPSAT HIP 1 01 Sep 00:47:38 00:51:55 60° 286° (WNW) 00:56:08 437.405
DUCHIFAT 1 01 Sep 00:48:04 00:52:19 62° 287° (WNW) 00:56:32 145.980
M-CUBED/EXP-1 PRIME 01 Sep 00:51:01 00:54:42 32° 298° (WNW) 00:58:04 437.505
ESTCUBE 1 01 Sep 00:51:45 00:54:30 15° 271° (W) 00:57:06 437.505/2401.250
BUGSAT 1 01 Sep 00:55:27 00:59:44 80° 285° (WNW) 01:04:00 437.445
Cosmos 2504 01 Sep 00:55:59 01:03:56 50° 288° (WNW) 01:12:14 435.465 / 435.565
SPROUT 01 Sep 00:58:39 01:02:43 41° 262° (W) 01:06:50 437.525
QB50P2 01 Sep 01:04:49 01:08:51 39° 290° (WNW) 01:12:50 145.880/145.840
NANOSAT C BR1 01 Sep 01:05:47 01:09:49 40° 290° (WNW) 01:13:48 145.865
CUBEBUG 1 01 Sep 01:06:04 01:08:06 13° 273° (W) 01:09:57 437.445
UNISAT 6 01 Sep 01:13:48 01:16:42 16° 299° (WNW) 01:19:25 437.425
SO-50 01 Sep 01:15:58 01:20:23 38° 117° (ESE) 01:24:57 436.795
GONETS M04 01 Sep 01:16:29 01:19:37 13° 73° (ENE) 01:23:22
BEESAT 01 Sep 01:16:36 01:20:55 35° 67° (ENE) 01:25:16 436.000
QB50P1 01 Sep 01:19:42 01:23:28 29° 292° (WNW) 01:27:09 145.935-145.965
BEESAT 3 01 Sep 01:33:33 01:35:00 11° 250° (WSW) 01:36:14 437.485
CUSAT 1 01 Sep 01:35:15 01:39:03 31° 295° (WNW) 01:43:53 437.405
Oscar 19 01 Sep 01:40:37 01:44:43 24° 92° (E) 01:48:55 437.125/150
SWISSCUBE 01 Sep 01:42:05 01:46:48 66° 73° (ENE) 01:51:33 437.505
BEESAT 2 01 Sep 01:45:42 01:47:11 12° 250° (WSW) 01:48:28 435.950
TISAT 1 01 Sep 02:04:15 02:06:50 15° 271° (W) 02:09:18 437.305
DANDE 01 Sep 02:04:39 02:07:50 23° 298° (WNW) 02:11:43 436.750
STARS 01 Sep 02:09:34 02:11:39 14° 60° (ENE) 02:13:55 437.465
PCSat 01 Sep 02:19:43 02:25:02 60° 118° (ESE) 02:30:24 145.827
ITUPSAT 1 01 Sep 02:20:42 02:25:26 60° 259° (W) 02:30:11 437.325
AIST 2 01 Sep 02:20:55 02:24:17 23° 245° (WSW) 02:27:33 435.215
RS-15 01 Sep 02:21:05 02:32:38 61° 243° (WSW) 02:44:28 29.354- 29.394
Gurwin Techsat 1B 01 Sep 02:22:40 02:26:18 19° 89° (E) 02:30:06 435.225
KKS-1 01 Sep 02:26:25 02:30:17 30° 67° (ENE) 02:34:13 437.445
ITAMSAT 1 01 Sep 02:39:50 02:43:41 21° 91° (E) 02:47:40 435.822/435.867
JAS-2 01 Sep 02:52:47 02:57:53 22° 85° (E) 03:02:46 435.910
BEESAT 01 Sep 02:54:38 02:58:49 29° 265° (W) 03:02:56 436.000
Cosmos 2504 01 Sep 02:55:45 02:58:52 12° 314° (NW) 03:01:30 435.465 / 435.565
SO-50 01 Sep 02:56:26 03:00:58 37° 318° (NW) 03:05:34 436.795
GONETS M04 01 Sep 03:06:20 03:14:51 65° 93° (E) 03:23:28
Oscar 19 01 Sep 03:19:21 03:24:23 50° 290° (WNW) 03:29:22 437.125/150
SWISSCUBE 01 Sep 03:22:15 03:25:11 16° 271° (W) 03:27:56 437.505
STARS 01 Sep 03:43:07 03:47:32 78° 256° (WSW) 03:52:00 437.465
VERMONT LUNAR 01 Sep 03:50:00 03:51:05 11° 157° (SSE) 03:52:11 437.305
Cosmos 2499 01 Sep 03:51:11 03:58:37 36° 85° (E) 04:06:31 435.465 / 435.565
Gurwin Techsat 1B 01 Sep 04:01:32 04:06:48 64° 289° (WNW) 04:12:03 435.225
KKS-1 01 Sep 04:02:54 04:06:52 31° 264° (W) 04:10:51 437.445
PCSat 01 Sep 04:04:11 04:08:51 28° 318° (NW) 04:13:29 145.827
AO-7 01 Sep 04:12:08 04:19:18 32° 94° (E) 04:26:36 29.400- 29.500
MOZHAYETS 4 01 Sep 04:15:49 04:20:20 57° 72° (ENE) 04:24:52
ITAMSAT 1 01 Sep 04:18:30 04:23:35 55° 290° (WNW) 04:28:38 435.822/435.867
JAS-2 01 Sep 04:36:43 04:43:55 74° 288° (WNW) 04:50:12 435.910
RS-15 01 Sep 04:37:08 04:42:58 14° 264° (W) 04:47:47 29.354- 29.394
CUBESAT XI-V 01 Sep 04:37:22 04:38:06 10° 58° (ENE) 04:39:04 437.345
O/OREOS (USA 219) 01 Sep 04:38:20 04:42:51 50° 60° (ENE) 04:47:20 437.305
SO-50 01 Sep 04:40:48 04:42:57 12° 340° (NNW) 04:44:59 436.795
HORYU 2 01 Sep 05:02:23 05:06:50 63° 101° (E) 05:11:15 437.375
GONETS M04 01 Sep 05:04:47 05:12:26 32° 296° (WNW) 05:19:58
VERMONT LUNAR 01 Sep 05:24:25 05:26:56 25° 172° (S) 05:29:27 437.305
Cosmos 2499 01 Sep 05:43:03 05:51:28 58° 286° (WNW) 06:00:13 435.465 / 435.565
Gurwin Techsat 1B 01 Sep 05:44:25 05:45:53 11° 306° (NW) 05:47:04 435.225
MOZHAYETS 4 01 Sep 05:54:52 05:57:58 17° 271° (W) 06:00:54
Cubesat XI-IV 01 Sep 06:01:23 06:03:25 12° 85° (E) 06:05:45 437.490
AO-7 01 Sep 06:04:30 06:12:42 64° 295° (WNW) 06:20:49 29.400- 29.500
STRAND 1 01 Sep 06:07:14 06:11:18 25° 63° (ENE) 06:15:28 437.568
CUBESAT XI-V 01 Sep 06:10:14 06:14:49 77° 74° (ENE) 06:19:26 437.345
PHONESAT 2.4 01 Sep 06:13:02 06:15:06 15° 158° (SSE) 06:17:13 2401.200-2431.200
O/OREOS (USA 219) 01 Sep 06:18:35 06:21:56 20° 258° (WSW) 06:25:10 437.305
JAS-2 01 Sep 06:23:17 06:27:44 17° 309° (NW) 06:31:41 435.910
PRISM 01 Sep 06:30:05 06:33:19 23° 66° (ENE) 06:36:36 437.425
YUBILEINY 01 Sep 06:30:46 06:36:00 17° 52° (NE) 06:41:38 435.215
HORYU 2 01 Sep 06:40:11 06:43:01 16° 299° (WNW) 06:45:43 437.375
CUTE-I 01 Sep 06:44:22 06:49:00 30° 94° (E) 06:53:42 437.470
VERMONT LUNAR 01 Sep 07:00:26 07:02:56 24° 189° (S) 07:05:25 437.305
BRITE-PL 01 Sep 07:21:54 07:25:11 16° 86° (E) 07:28:46 437.365/2234.400
Cosmos 2491 01 Sep 07:26:43 07:29:47 13° 73° (ENE) 07:33:30 435.465 / 435.565
